Regional Weather Roundup
Issued by NWS

Home | Current Version | Previous Version | Text Only | Print | Product List | Glossary Off
Versions: 1 2 3 4 5 6 7 8 9 10 11 12 13 14 15 16 17 18 19 20 21 22 23 24 25 26 27 28 29 30 31 32 33 34 35 36 37 38 39 40 41 42 43 44 45 46 47 48 49 50

000
ASUS45 KTFX 170610
RWRMT
MONTANA REGIONAL WEATHER ROUNDUP
NATIONAL WEATHER SERVICE GREAT FALLS MT
1100 PM MST TUE JAN 16 2018

NOTE: "FAIR" INDICATES FEW OR NO CLOUDS BELOW 12000 FEET WITH NO
SIGNIFICANT WEATHER AND/OR OBSTRUCTIONS TO VISIBILITY.

MTZ001>007-043-170700-
WEST OF THE DIVIDE

CITY           SKY/WX    TMP DP  RH WIND       PRES   REMARKS
KALISPELL      CLOUDY    31  29  92 SW6       30.32R WCI  25
MISSOULA       CLOUDY    31  27  85 SE5       30.34S
BUTTE          FAIR      14  10  84 CALM      30.30R
MULLAN PASS    MOCLDY    28  26  92 SW9       30.25S WCI  19
ANACONDA         N/A     23  18  80 CALM      30.31R
DEER LODGE       N/A     18  18 100 CALM      30.35R
EUREKA           N/A     36  28  75 MISG      30.29R
HAMILTON         N/A     28  27  93 CALM      30.34
PLAINS           N/A     29  21  71 CALM      30.32R
RONAN            N/A     30  28  93 SE5       30.35R
$$

MTZ008-052>055-170700-
SOUTHWEST MONTANA

CITY           SKY/WX    TMP DP  RH WIND       PRES   REMARKS
BOZEMAN        FAIR      17  10  74 S8        30.30R WCI   7
DILLON         FAIR      26  18  71 S7        30.28R WCI  18
ENNIS          MOCLDY    28  19  69 S8        30.32R WCI  20
W YELLOWSTONE  CLOUDY     5   3  92 CALM      30.32S
THREE FORKS      N/A     20  16  84 CALM      30.25R
TWIN BRIDGES     N/A     24  15  68 CALM      30.23R
$$

MTZ009-010-012-014-046-048-049-054-170700-
EAST SLOPES AND CENTRAL MONTANA

CITY           SKY/WX    TMP DP  RH WIND       PRES   REMARKS
CUT BANK       FAIR      37  25  61 SW32G40   30.10R WCI  24
GREAT FALLS    FAIR      37  25  61 SW21      30.16R WCI  26
MALMSTROM AFB  FAIR      38  27  65 SW25      30.17R WCI  26
HELENA         FAIR      16  13  88 CALM      30.30R
AUGUSTA        CLOUDY    37  23  57 W15G24    30.18R WCI  28
BOWMANS CRNR   MOCLDY    35  23  61 SW8       30.17R WCI  29
CHOTEAU          N/A     39  23  52 W15       30.17R WCI  31
FAIRFIELD      FAIR      37  23  57 W20       30.16R WCI  26
POWER          MOCLDY    31  22  69 SW20      30.15R WCI  18
RAYNESFORD     FAIR      42  21  43 W15       30.15R
ULM            MOCLDY    36  26  67 SW14      30.19R WCI  27
WHITE SULPHUR    N/A     10   7  85 SE5       30.23R
$$

MTZ011-013-016-021-045-047-050-051-170700-
NORTH CENTRAL MONTANA

CITY           SKY/WX    TMP DP  RH WIND       PRES   REMARKS
HAVRE          FAIR       8   3  80 SW21      30.11R WCI -12
LEWISTOWN      FAIR      28  21  75 W10       30.13R WCI  19
N BAR RANCH    FAIR      41  23  48 NW17G23   30.12R
CHINOOK          N/A     -8 -13  77 N3        30.13R
DENTON         FAIR      37  26  65 MISG      30.09R
GEYSER         FAIR      36  26  65 W23       30.11S WCI  25
GRASS RANGE    FAIR      37  24  59 S12       30.07R WCI  29
STANFORD       FAIR      37  21  53 W14       30.11S WCI  28
WINIFRED       FAIR      35  26  71 W14       30.10R WCI  25
$$

MTZ017>020-022>027-061-062-170700-
NORTHEAST MONTANA

CITY           SKY/WX    TMP DP  RH WIND       PRES   REMARKS
GLASGOW        FAIR      -1  -5  82 NW6       30.11R WCI -13
GLENDIVE       FAIR       8   2  76 SW15      30.14R WCI  -9
JORDAN           N/A      1  -5  75 SW5       30.10
MALTA          CLEAR     -8 -15  71 SW7       30.14S WCI -22
SIDNEY         FAIR       2  -4  76 SW17      30.14F WCI -18
WOLF POINT     FAIR      -6 -11  79 SW3       30.13S HAZE
PLENTYWOOD       N/A      1  -4  78 CALM      30.05F
POPLAR           N/A      0  -6  78 W5        30.13R
SCOBEY           N/A      3  -6  66 S1        30.02S
$$

MTZ028>42-056>058-170700-
SOUTHCENTRAL AND SOUTHEAST MONTANA

CITY           SKY/WX    TMP DP  RH WIND       PRES   REMARKS
BAKER          FAIR       0  -5  79 SE3       30.16S
BILLINGS       FAIR      25  12  58 SW22      30.16R WCI  10
LIVINGSTON     FAIR      32  19  58 W18       30.22R WCI  20
MILES CITY     FAIR       5   0  79 S8        30.16R WCI  -8
BIG TIMBER     CLEAR     37  18  44 W35G40    30.18R WCI  24
EKALAKA          N/A     28   6  39 SW10      30.11R WCI  19
FORSYTH          N/A      0  -6  78 CALM      30.17R
HARLOWTON      MOCLDY    34  24  64 NW26      30.16R WCI  21
LAUREL           N/A     21  10  63 SW12      30.19S WCI   9
ROUNDUP          N/A     30  15  53 S15       30.03R WCI  19
$$

REGIONAL REPORTS...DAKOTAS

CITY           SKY/WX    TMP DP  RH WIND       PRES   REMARKS
WILLISTON      FAIR       5  -3  69 S6        30.12F WCI  -6
MINOT          FAIR      13  -1  54 S22       30.07F WCI  -6
DICKINSON      FAIR      11  -1  58 SW9       30.12S WCI  -2
BEACH          FAIR      21   9  58 SW15G22   30.15F WCI   8
CROSBY         FAIR       7   0  72 SW14      30.06S WCI -10
TIOGA          FAIR      10  -2  56 SW15      30.08F WCI  -6
WATFORD CITY   FAIR       9  -2  61 SW7       30.11F WCI  -3
BISMARCK       FAIR       5  -4  66 CALM      30.24F
GRAND FORKS    FAIR       3  -3  76 S14       30.25F WCI -15
FARGO          FAIR       5  -3  69 S16       30.33F WCI -14
BUFFALO SD       N/A     12   0  58 CALM      30.08R
RAPID CITY     FAIR      13   4  67 E3        30.17F
$$

REGIONAL REPORTS...WYOMING/IDAHO/WASHINGTON

CITY           SKY/WX    TMP DP  RH WIND       PRES   REMARKS
GILLETTE         N/A    N/A N/A N/A MISG      30.16R
SHERIDAN       FAIR       7   0  73 CALM      30.17R
BUFFALO WY     FAIR      36   0  21 SW5       30.14R
CODY           FAIR      13   9  84 S6        30.19S WCI   4
YELLOWSTONE LA   N/A     -1  -5  82 CALM      30.34S
IDAHO FALLS    FAIR      30  27  88 NW5       30.35R
SALMON         CLOUDY    27  24  89 CALM      30.43R
BOISE          FOG       34  32  92 E3        30.36S VSB 1/2
SPOKANE        FOG       31  31 100 N3        30.30S VSB 1/4
$$

REGIONAL REPORTS...ALBERTA

CITY           SKY/WX    TMP DP  RH WIND       PRES   REMARKS
CALGARY        PTCLDY    43  18  36 W18G28    29.91R
CARDSTON         N/A     37  21  52 MISG        N/A
EDMONTON       CLEAR     23  16  74 W9        29.76R WCI  13
FORT MCMURRAY  CLEAR      1   0  92 S3        29.70F
HIGH LEVEL     CLEAR      5   1  85 CALM      29.67S
LETHBRIDGE     CLEAR     37  27  65 W22       30.04R WCI  27
LLOYDMINSTER   CLEAR     10   7  85 SW8       29.72S WCI  -1
MEDICINE HAT   CLEAR     37  27  65 SW23G30   29.96R WCI  26
MILK RIVER       N/A     37  27  65 W17         N/A  WCI  28
ONEFOUR          N/A     10  10 100 W8          N/A  WCI  -1
PEACE RIVER    MOCLDY    16  12  86 SW8       29.77S WCI   5
PINCHER CREEK  CLEAR     37  23  56 SW39G49   30.02F WCI  23
$$

REGIONAL REPORTS...SASKATCHEWAN

CITY           SKY/WX    TMP DP  RH WIND       PRES   REMARKS
CYPRESS HILLS    N/A     37  18  44 W15G24      N/A  WCI  28
ESTEVAN        CLEAR      9  -2  61 SW13      30.03F WCI  -7
MOOSE JAW        N/A     19   9  63 W9          N/A  WCI   9
PRINCE ALBERT  CLEAR      7   3  85 SW2       29.79F
REGINA         CLEAR      3  -2  78 SE9       29.94F WCI -11
ROCKGLEN         N/A     14   7  73 W17         N/A  WCI  -3
SASKATOON      CLEAR     14   7  73 S10       29.82F WCI   1
SWIFT CURRENT  CLEAR     25  16  68 SW18      29.91R WCI  11
VAL MARIE        N/A     -8 -13  77 CALM        N/A
$$



USA.gov is the U.S. government's official web portal to all federal, state and local government web resources and services.